[[{"header":{"parameterUnit":"m.s-1","parameterCategory":1,"la1":30.2991,"la2":30.254,"lo1":-89.0895,"lo2":-89.0444,"dy":0.0017,"dx":0.0017,"nx":28,"ny":28,"refTime":"2025-09-18T03:00:00:Z","depth":0,"parameterNumber":2,"parameterNumberName":"U-component_of_WINDS"},"data":[0,0,0,0,0,0,0,0,0,0,0,0,0,0,0,0,0,0,0,0,0,0,0,0,0,0,0,0,0,0,0,0,0,0,0,0,0,0,0,0,0,0,0,0,0,0,0,0,0,0,0,0,0,0,0,0,0,0,1.6883,1.6884,0,1.692,1.692,1.6921,1.693,1.6929,1.6929,1.6929,1.6962,1.6963,1.6964,0,0,0,0,0,0,0,0,0,0,0,0,0,1.6816,1.6817,1.6883,1.6884,1.6884,1.692,1.692,1.6921,1.693,1.6929,1.6929,1.6929,1.6962,1.6963,1.6965,0,0,0,0,0,0,0,0,0,0,0,0,0,1.6848,1.6817,1.6883,1.6893,1.6894,1.692,1.692,1.6921,1.693,1.6929,1.6929,1.6929,1.6962,1.6963,1.6965,1.6982,0,0,1.697,1.6971,0,0,0,0,0,0,0,0,1.6846,1.685,1.6891,1.6892,1.6894,1.692,1.6909,1.6941,1.693,1.6916,1.6929,1.6929,1.6948,1.6951,1.6958,1.6983,1.6985,1.697,1.6971,1.6972,1.6972,0,0,0,0,0,0,0,1.6844,1.6849,1.6898,1.6892,1.6893,1.6894,1.6898,1.6915,1.6933,1.6917,1.6918,1.6922,1.6949,1.6957,1.6959,1.6985,1.697,1.6971,1.6972,1.6973,1.7025,1.7025,0,0,0,0,0,0,1.6841,1.6847,1.6896,1.6899,1.6869,1.6895,1.69,1.6912,1.6933,1.6936,1.6923,1.6923,1.6954,1.6957,1.696,1.6981,1.6972,1.6973,1.6974,1.7024,1.7025,1.7025,0,0,0,0,0,0,1.6839,1.6845,1.6895,1.6873,1.688,1.6897,1.691,1.6913,1.6921,1.6938,1.694,1.6928,1.6954,1.6958,1.6976,1.6982,1.6974,1.6975,1.7024,1.7024,1.7025,1.7023,0,0,0,0,0,0,1.6837,1.6844,1.6852,1.6873,1.6881,1.6912,1.691,1.6914,1.6924,1.6924,1.6943,1.6946,1.6954,1.6974,1.6978,1.6984,1.6977,1.7023,1.7024,1.7025,1.7022,1.7023,1.7024,0,0,0,0,0,1.6835,1.685,1.6853,1.6859,1.6891,1.6912,1.6916,1.6927,1.6925,1.6932,1.6942,1.6945,1.6981,1.6976,1.698,1.6987,1.7023,1.7024,1.7025,1.7022,1.7023,1.7024,0,0,0,0,0,0,1.6828,1.6853,1.6856,1.6879,1.6893,1.6914,1.6923,1.6928,1.6942,1.6942,1.6953,1.6957,1.6974,1.6983,1.6976,1.7004,1.7002,1.7004,1.6998,1.6999,1.7,1.6997,1.6978,0,0,0,0,0,1.6829,1.6846,1.6866,1.6884,1.6891,1.6906,1.6915,1.6922,1.6937,1.6943,1.6955,1.6968,1.6982,1.6991,1.7005,1.7024,1.7027,1.7031,1.7031,1.7032,1.7033,1.7042,1.7044,1.7028,1.7028,1.7028,0,0,1.6831,1.6847,1.6857,1.6883,1.6895,1.691,1.6911,1.6927,1.6938,1.6945,1.6963,1.6972,1.6987,1.7006,1.7014,1.7013,1.7038,1.7033,1.7033,1.7034,1.7043,1.7045,1.7046,1.7028,1.7028,1.7028,0,0,1.6843,1.6858,1.6874,1.6886,1.6905,1.6914,1.6918,1.6937,1.6944,1.6963,1.6968,1.698,1.7005,1.7015,1.7024,1.7039,1.7041,1.7043,1.7046,1.7055,1.7056,1.7058,1.7062,1.7063,1.7044,1.7044,1.7044,0,1.6844,1.6869,1.6881,1.6897,1.6907,1.6915,1.693,1.6941,1.6963,1.6969,1.6968,1.6999,1.701,1.703,1.7033,1.704,1.7044,1.7041,1.7056,1.7057,1.7058,1.7062,1.7064,1.7044,1.7044,1.7044,1.7044,0,1.6867,1.6884,1.6894,1.6916,1.6928,1.6943,1.6956,1.6966,1.6972,1.6981,1.6999,1.7012,1.7028,1.7034,1.7039,1.7054,1.7053,1.7054,1.7051,1.7059,1.7063,1.7065,1.7044,1.7044,1.7044,1.7044,0,0,1.6876,1.6905,1.6908,1.6918,1.6938,1.6951,1.6966,1.6983,1.6991,1.7005,1.7017,1.7037,1.7038,1.7047,1.7053,1.7061,1.7071,1.7061,1.7061,1.7061,1.7087,1.7086,1.7088,1.7073,1.7073,1.7073,1.7085,0,1.689,1.6919,1.693,1.6952,1.6967,1.6974,1.6987,1.7,1.7009,1.7021,1.703,1.7044,1.7045,1.705,1.7058,1.7068,1.7076,1.7067,1.7082,1.7083,1.7078,1.709,1.7089,1.71,1.7087,1.7087,1.7088,0,1.691,1.6926,1.695,1.6969,1.6975,1.6987,1.7003,1.7015,1.7029,1.7035,1.7046,1.7051,1.7065,1.7062,1.7081,1.7075,1.7082,1.7087,1.7088,1.7089,1.7085,1.7091,1.7104,1.7105,1.709,1.709,1.709,0,1.6913,1.694,1.6958,1.6966,1.6988,1.6996,1.7005,1.7019,1.7028,1.7042,1.7048,1.7062,1.707,1.708,1.7089,1.7086,1.7107,1.7105,1.7111,1.711,1.7114,1.7114,1.7128,1.712,1.7119,1.7119,1.7119,0,1.6927,1.6941,1.696,1.697,1.6986,1.6998,1.7012,1.7022,1.7034,1.7046,1.7053,1.7063,1.7075,1.7086,1.7093,1.7107,1.711,1.7114,1.7116,1.7113,1.7113,1.7118,1.7117,1.712,1.712,1.712,1.712,0,1.6933,1.6946,1.6966,1.6985,1.699,1.7,1.7016,1.7026,1.7035,1.7049,1.7053,1.7067,1.7081,1.7091,1.7108,1.7113,1.7127,1.7129,1.7123,1.7123,1.7129,1.7128,1.7145,1.7148,1.7139,1.7139,1.7139,0,1.6941,1.6952,1.6973,1.6982,1.6991,1.7005,1.7015,1.7026,1.7036,1.7053,1.706,1.7075,1.7087,1.7108,1.7119,1.7132,1.7133,1.7139,1.7135,1.7132,1.7132,1.7132,1.7132,1.7139,1.7139,1.7139,1.7139,0,1.6953,1.6959,1.6973,1.699,1.7001,1.7014,1.7027,1.7034,1.7047,1.7057,1.7072,1.7081,1.71,1.7113,1.7127,1.7135,1.7139,1.714,1.7142,1.7139,1.7135,1.7137,1.7123,1.714,1.7139,1.7139,1.7139,1.7139,1.6959,1.6969,1.6985,1.7001,1.7012,1.7024,1.7034,1.7045,1.7057,1.7074,1.7079,1.7094,1.7107,1.7127,1.7135,1.7145,1.7145,1.7148,1.7149,1.7149,1.7149,1.7134,1.7148,1.7148,1.7148,1.7148,1.7148,0,1.6971,1.6982,1.6996,1.7014,1.7026,1.703,1.7044,1.7053,1.7067,1.7079,1.7091,1.7108,1.7121,1.7132,1.7146,1.7152,1.7154,1.7155,1.7154,1.7156,1.7148,1.7145,1.7153,1.7153,1.7153,1.7153,1.7153,1.7153,1.6979,1.6995,1.7003,1.7025,1.7035,1.7051,1.7058,1.7069,1.7079,1.7097,1.7108,1.7116,1.7128,1.7142,1.7154,1.7157,1.7161,1.7162,1.7165,1.7157,1.7157,1.7156,1.7153,1.7163,1.7163,1.7171,1.7171,1.7171]},{"header":{"parameterUnit":"m.s-1","parameterCategory":1,"la1":30.2991,"la2":30.254,"lo1":-89.0895,"lo2":-89.0444,"dy":0.0017,"dx":0.0017,"nx":28,"ny":28,"refTime":"2025-09-18T03:00:00:Z","depth":0,"parameterNumber":3,"parameterNumberName":"V-component_of_WINDS"},"data":[0,0,0,0,0,0,0,0,0,0,0,0,0,0,0,0,0,0,0,0,0,0,0,0,0,0,0,0,0,0,0,0,0,0,0,0,0,0,0,0,0,0,0,0,0,0,0,0,0,0,0,0,0,0,0,0,0,0,2.0264,2.0264,0,2.0275,2.0276,2.0276,2.0227,2.0225,2.0224,2.0222,2.0233,2.0235,2.0236,0,0,0,0,0,0,0,0,0,0,0,0,0,2.0197,2.0198,2.0264,2.0264,2.0264,2.0275,2.0276,2.0276,2.0227,2.0225,2.0223,2.0222,2.0232,2.0234,2.0236,0,0,0,0,0,0,0,0,0,0,0,0,0,2.0219,2.0199,2.0264,2.0241,2.0239,2.0275,2.0276,2.0276,2.0227,2.0225,2.0223,2.0221,2.0232,2.0234,2.0237,2.0295,0,0,2.0244,2.0245,0,0,0,0,0,0,0,0,2.0218,2.0222,2.0244,2.0243,2.0241,2.0247,2.0256,2.0282,2.0228,2.0232,2.0222,2.022,2.0239,2.0241,2.0248,2.0295,2.0295,2.0244,2.0246,2.0247,2.0247,0,0,0,0,0,0,0,2.0216,2.0221,2.0268,2.0245,2.0243,2.023,2.023,2.026,2.0247,2.0231,2.0228,2.023,2.0238,2.0246,2.0248,2.0296,2.0244,2.0246,2.0248,2.0249,2.0389,2.0391,0,0,0,0,0,0,2.0218,2.022,2.0268,2.0269,2.0224,2.0233,2.0233,2.0247,2.0247,2.0245,2.0232,2.0228,2.0243,2.0245,2.0248,2.0315,2.0247,2.0249,2.025,2.0387,2.0389,2.0392,0,0,0,0,0,0,2.0217,2.0223,2.0267,2.0243,2.0248,2.0236,2.0252,2.0249,2.0256,2.0247,2.0245,2.0242,2.0241,2.0245,2.0283,2.0314,2.025,2.0252,2.0384,2.0388,2.0391,2.0449,0,0,0,0,0,0,2.0215,2.0223,2.0245,2.0244,2.0249,2.0303,2.0254,2.0251,2.0261,2.0256,2.0256,2.0254,2.024,2.028,2.0285,2.0316,2.0254,2.0381,2.0386,2.039,2.0444,2.0454,2.0463,0,0,0,0,0,2.0213,2.0262,2.0247,2.0253,2.0278,2.0305,2.0308,2.029,2.0264,2.0286,2.028,2.0254,2.031,2.0284,2.029,2.0322,2.0379,2.0384,2.0389,2.044,2.0452,2.0462,0,0,0,0,0,0,2.0267,2.0261,2.0245,2.0295,2.0301,2.0297,2.0324,2.0304,2.0318,2.0312,2.0289,2.029,2.0332,2.0331,2.0302,2.0378,2.034,2.0346,2.0377,2.0388,2.0397,2.0396,2.0256,0,0,0,0,0,2.0285,2.0308,2.0302,2.0346,2.035,2.0337,2.0348,2.0334,2.0339,2.0341,2.0338,2.0344,2.0362,2.0375,2.0392,2.0444,2.0443,2.0469,2.0478,2.0486,2.0492,2.0518,2.0529,2.0409,2.0409,2.0409,0,0,2.0322,2.0321,2.0338,2.0357,2.036,2.0384,2.0339,2.0367,2.0384,2.0345,2.0381,2.0379,2.0384,2.0429,2.0449,2.043,2.0524,2.0492,2.0498,2.05,2.0524,2.0535,2.0546,2.0412,2.0411,2.0411,0,0,2.0401,2.0403,2.044,2.0444,2.0449,2.0439,2.0448,2.0447,2.0444,2.048,2.0451,2.0471,2.0504,2.0508,2.0514,2.0593,2.057,2.0599,2.0646,2.0672,2.0681,2.069,2.0717,2.0727,2.0605,2.0605,2.0605,0,2.0446,2.0481,2.0461,2.049,2.0499,2.0465,2.0501,2.0506,2.0516,2.0523,2.0501,2.054,2.0541,2.0586,2.0605,2.0612,2.0621,2.0599,2.0682,2.069,2.0697,2.0723,2.0733,2.0608,2.0608,2.0608,2.0607,0,2.0535,2.056,2.0589,2.06,2.0612,2.0644,2.0628,2.0643,2.0627,2.0619,2.0655,2.0655,2.067,2.068,2.0665,2.0723,2.071,2.0686,2.0647,2.0713,2.0736,2.0746,2.0613,2.0612,2.0611,2.061,0,0,2.065,2.0648,2.0659,2.0662,2.0665,2.0683,2.0713,2.0728,2.074,2.0748,2.0772,2.08,2.0777,2.0784,2.077,2.0792,2.0853,2.0764,2.0764,2.078,2.0915,2.0933,2.0945,2.0838,2.084,2.0841,2.0914,0,2.0726,2.0778,2.0761,2.0813,2.0835,2.0802,2.0828,2.0832,2.0826,2.0843,2.0835,2.0855,2.0823,2.0827,2.0848,2.0841,2.088,2.0836,2.0859,2.086,2.0859,2.0957,2.0977,2.1046,2.0923,2.0925,2.0926,0,2.0823,2.0834,2.0889,2.0886,2.0894,2.0919,2.093,2.0947,2.095,2.0943,2.0951,2.0931,2.0959,2.0921,2.0959,2.093,2.0938,2.0936,2.0938,2.0939,2.0897,2.096,2.1067,2.1077,2.0941,2.0939,2.0938,0,2.09,2.0928,2.0964,2.0968,2.0966,2.0984,2.0983,2.0984,2.0994,2.1004,2.101,2.1023,2.103,2.104,2.1024,2.0998,2.1064,2.1025,2.1059,2.1059,2.1074,2.1073,2.1183,2.1081,2.108,2.108,2.108,0,2.0987,2.1021,2.0998,2.1021,2.1057,2.1036,2.1073,2.1069,2.107,2.109,2.1063,2.1082,2.106,2.1077,2.1064,2.1097,2.11,2.1095,2.1091,2.1098,2.1098,2.1102,2.1097,2.1083,2.1082,2.1082,2.1081,0,2.1078,2.1065,2.1101,2.1096,2.1095,2.1123,2.1118,2.1137,2.1128,2.1154,2.1159,2.1145,2.1163,2.1148,2.1166,2.1157,2.1201,2.119,2.12,2.1196,2.1231,2.1228,2.1347,2.1361,2.125,2.1252,2.1252,0,2.1135,2.116,2.1157,2.1168,2.117,2.1189,2.1198,2.1178,2.1188,2.1193,2.1212,2.1228,2.1239,2.127,2.1261,2.1275,2.1264,2.1305,2.1266,2.1271,2.1263,2.1262,2.1264,2.1313,2.1314,2.1315,2.1316,0,2.1236,2.1227,2.1242,2.1254,2.1265,2.1274,2.128,2.1291,2.127,2.1283,2.1301,2.1311,2.1328,2.1344,2.1354,2.1353,2.1331,2.1328,2.1337,2.1343,2.1347,2.1344,2.122,2.1326,2.1325,2.1324,2.1323,2.1323,2.1311,2.1331,2.1332,2.1348,2.1351,2.1357,2.1375,2.1367,2.1382,2.1395,2.1382,2.1404,2.1405,2.1416,2.1418,2.1434,2.1417,2.143,2.1432,2.1436,2.144,2.1345,2.1436,2.1436,2.1435,2.1435,2.1435,0,2.1409,2.1407,2.1423,2.1432,2.1445,2.1423,2.1428,2.144,2.146,2.1462,2.1474,2.1494,2.1509,2.1501,2.1514,2.1529,2.1519,2.1533,2.1531,2.1531,2.1455,2.1446,2.154,2.154,2.154,2.154,2.154,2.154,2.1462,2.1495,2.1486,2.152,2.1517,2.1539,2.1543,2.1548,2.155,2.1574,2.1586,2.1581,2.1579,2.1591,2.1603,2.1601,2.1606,2.1624,2.1617,2.1547,2.1536,2.1526,2.1518,2.1625,2.1626,2.1691,2.1692,2.1692]}]]